Regional Weather Roundup
Issued by NWS

Home | Current Version | Previous Version | Text Only | Print | Product List | Glossary On
Versions: 1 2 3 4 5 6 7 8 9 10 11 12 13 14 15 16 17 18 19 20 21 22 23 24 25 26 27 28 29 30 31 32 33 34 35 36 37 38 39 40 41 42 43 44 45 46 47 48 49 50
000
ASUS43 KMKX 261900
RWRWI

WISCONSIN REGIONAL WEATHER ROUNDUP
NATIONAL WEATHER SERVICE MILWAUKEE/SULLIVAN WI
200 PM CDT TUE SEP 26 2017

NOTE: "FAIR" INDICATES FEW OR NO CLOUDS BELOW 12,000 FEET WITH NO
SIGNIFICANT WEATHER AND/OR OBSTRUCTIONS TO VISIBILITY.

WIZ001-002-006>008-014>016-023>028-262000-
NORTHWEST WISCONSIN

CITY           SKY/WX    TMP DP  RH WIND       PRES   REMARKS
SUPERIOR ARPT  CLOUDY    56  56 100 NE5       29.92S FOG
ASHLAND        CLOUDY    58  57  97 NE6       29.89S
HAYWARD        CLOUDY    60  56  86 SW9G17    29.92R
SIREN          CLOUDY    61  56  82 W12G18    29.94R
CUMBERLAND     CLOUDY    57  54  88 W12       29.95S FOG
RICE LAKE      CLOUDY    60  56  84 W9        29.96S
CHETEK         LGT RAIN  60  57  92 W8        29.95S
LADYSMITH      CLOUDY    63  60  90 W13       29.94R
EAU CLAIRE     CLOUDY    62  57  83 W13       29.95R
MENOMONIE      CLOUDY    62  56  82 W12G17    29.97R
NEW RICHMOND   CLOUDY    61  54  79 W15G25    29.98R
OSCEOLA        CLOUDY    62  55  76 W13       30.00R
$$

WIZ003>005-009-010-017-018-262000-
NORTH CENTRAL WISCONSIN

CITY           SKY/WX    TMP DP  RH WIND       PRES   REMARKS
MANITOWISH WTR NOT AVBL
ARBOR VITAE    LGT RAIN  68  65  89 SW6       29.89F
WOODRUFF       LGT RAIN  68  65  89 SW6       29.89F
RHINELANDER    CLOUDY    70  63  78 SW8       29.90F
EAGLE RIVER    CLOUDY    70  61  74 SW8       29.89F
LAND O LAKES   LGT RAIN  69  63  81 SW5       29.90F
PHILLIPS       LGT RAIN  64  64 100 SW10      29.89F
TOMAHAWK       LGT RAIN  66  62  87 CALM      29.91F
MEDFORD        LGT RAIN  66  63  90 SW6       29.91F
MERRILL        CLOUDY    72  65  78 SW10      29.91F
$$

WIZ029-030-035-036-043>047-262000-
CENTRAL WISCONSIN

CITY           SKY/WX    TMP DP  RH WIND       PRES   REMARKS
WAUSAU         CLOUDY    72  64  76 SW8       29.90F
MOSINEE        CLOUDY    72  66  83 SW9       29.93F
MARSHFIELD     CLOUDY    70  63  78 W9        29.92S
STEVENS POINT  CLOUDY    69  65  87 SW12G17   29.93S
WAUPACA        CLOUDY    75  68  78 SW7       29.92F
WAUTOMA        CLOUDY    74  67  78 W8        29.93F
WISC RAPIDS    LGT RAIN  70  68  93 SW6       29.93F
CAMP DOUGLAS   NOT AVBL
$$

WIZ011>013-019>022-031-037>040-048>050-262000-
NORTHEAST WISCONSIN

CITY           SKY/WX    TMP DP  RH WIND       PRES   REMARKS
ANTIGO         CLOUDY    70  65  85 SW12G18   29.93S
SHAWANO        CLOUDY    76  66  69 W7        29.90F
OCONTO         MOSUNNY   78  65  64 SW8       29.89F HX  80
STURGEON BAY   PTSUNNY   77  65  66 W6        29.90F
GREEN BAY      CLOUDY    80  66  62 VRB7      29.89F HX  82
MANITOWOC      CLOUDY    80  66  62 SW6       29.90F HX  82
APPLETON       PTSUNNY   77  61  57 W7        29.90F
CLINTONVILLE   CLOUDY    75  64  69 W9        29.91F
OSHKOSH        CLOUDY    78  65  63 W12       29.91F HX  80
$$

WIZ032>034-041-042-053>061-262000-
SOUTHWEST WISCONSIN

CITY           SKY/WX    TMP DP  RH WIND       PRES   REMARKS
LA CROSSE      CLOUDY    71  63  75 NW9       29.95R
SPARTA         CLOUDY    67  64  89 SW8       29.94S
VIROQUA        CLOUDY    68  67  98 W8        29.96F
BOSCOBEL       CLOUDY    74  67  78 SW5       29.95F
PRAIRIE DU CHI CLOUDY    71  66  85 W6        29.96S
PLATTEVILLE    CLOUDY    76  67  74 W12G18    29.97S
$$

WIZ056-057-062-063-064-067-068-262000-
SOUTH CENTRAL WISCONSIN

CITY           SKY/WX    TMP DP  RH WIND       PRES   REMARKS
REEDSBURG      CLOUDY    72  67  84 W10       29.94S
BARABOO/DELLS  CLOUDY    72  66  82 W8        29.95S
LONE ROCK      NOT AVBL
MINERAL POINT  CLOUDY    73  68  83 W9        29.96S
MADISON        CLOUDY    79  65  62 W6        29.92F HX  81
MIDDLETON      CLOUDY    80  65  61 W12       29.94S HX  81
WATERTOWN      PTSUNNY   83  66  56 W7        29.91F HX  85
MONROE         CLOUDY    79  63  57 W15       29.94F HX  80
JANESVILLE     PTSUNNY   90  59  35 SW14G20   29.90F HX  89
$$

WIZ051-052-058>065-066-070>072-262000-
SOUTHEAST WISCONSIN

CITY           SKY/WX    TMP DP  RH WIND       PRES   REMARKS
MILWAUKEE      CLOUDY    89  63  41 W9        29.90F HX  90
WAUKESHA       PTSUNNY   82  61  47 SW9       29.92F HX  83
MILWAUKEE/TIMM PTSUNNY   86  57  37 SW13      29.91F HX  85
RACINE         PTSUNNY   88  64  44 SW10      29.92F HX  89
BURLINGTON     PTSUNNY   86  63  45 SW10G20   29.92F HX  87
KENOSHA        MOSUNNY   89  63  41 SW10G21   29.91F HX  90
FOND DU LAC    CLOUDY    80  64  58 SW8       29.91F HX  82
SHEBOYGAN      PTSUNNY   84  68  58 W8        29.90F HX  87
WEST BEND        N/A     82  61  47 W7        29.91F HX  83
JUNEAU         MOSUNNY   80  66  62 SW9       29.93F HX  82
$$

LSZ147-162-262000-
LAKE SUPERIOR

STATION/POSITION TIME  TEMP    WIND        PRES    WAVE
                       AIR SEA DIR/SP/G            HT/PER
                 (UTC) (F)     (DEG/KT/KT) (MB)    (FT/S)
W MID LAKE BUOY  1750   55 56   30/ 16/ 19 1012.1F   5/ 6
DEVILS ISLAND    1800   55      50/ 18/ 19 1012.5F
SAXON HARBOR     1840   61      50/  1/  2 1011.2F
$$

LMZ867-665-643>646-262000-
LAKE MICHIGAN

STATION/POSITION TIME  TEMP    WIND        PRES    WAVE
                       AIR SEA DIR/SP/G            HT/PER
                 (UTC) (F)     (DEG/KT/KT) (MB)    (FT/S)
S GREEN BAY BUOY 1830   71 71  180/  4/  4 1012.4F
N MID LAKE BUOY  1750   68 67  200/ 12/ 14 1013.2R   1/ 3
NORTHPORT PIER   1840   71     130/  5/  6 1011.9F
KEWAUNEE LAKESHO 1830   71     110/  3/  4 1011.8F
SHEBOYGAN LAKESH 1800   74     180/  8/ 11 1012.4F
PORT WASHINGTON  1840   77     190/  2/  6 1013.2F
ATWATER BUOY     1739   67 63  190/  6/  6 1013.3F
MILWAUKEE LAKESH 1850   68     130/  7/ 10   N/A
S MID LAKE BUOY  1750   73 71  160/ 10/ 12 1013.7F   1
KENOSHA   LAKESH 1800   78     170/  8/ 11 1012.9
$$

TC  - TEMPERATURE IN CELSIUS
VSB - VISIBILITY IN STATUTE MILES
WCI - WIND CHILL INDEX
HX  - HEAT INDEX




USA.gov is the U.S. government's official web portal to all federal, state and local government web resources and services.